[Iaude] MPEC F122: 2019 FV [a=1.20,e=0.18,i=11.3,H=24.0]

mpec at mpcdb1.cfa.harvard.edu mpec at mpcdb1.cfa.harvard.edu
Thu Mar 28 10:33:16 EDT 2019


M.P.E.C. 2019-F122                               Issued 2019 Mar. 28, 14:30 UT
 
     The Minor Planet Electronic Circulars contain information on unusual
         minor planets and routine data on comets.  They are published
    on behalf of Division F of the International Astronomical Union by the
          Minor Planet Center, Smithsonian Astrophysical Observatory,
                          Cambridge, MA 02138, U.S.A.

             Prepared using the Tamkin Foundation Computer Network

                              MPC at CFA.HARVARD.EDU
            URL https://www.minorplanetcenter.net/    ISSN 1523-6714


                                    2019 FV
 
Observations:
     K19F00V* C2019 03 26.48005 16 18 41.21 +24 41 49.4          19.7 GVEF122703
     K19F00V  C2019 03 26.48362 16 18 42.72 +24 41 24.3          20.3 GVEF122703
     K19F00V  C2019 03 26.48718 16 18 44.14 +24 41 01.1          19.7 GVEF122703
     K19F00V  C2019 03 26.49075 16 18 45.66 +24 40 36.1          20.2 GVEF122703
     K19F00V KC2019 03 26.96576716 22 37.58 +23 43 46.4          19.9 GVEF122L01
     K19F00V KC2019 03 26.96663316 22 37.98 +23 43 39.9          19.7 GVEF122L01
     K19F00V KC2019 03 26.96749716 22 38.43 +23 43 32.7          19.7 GVEF122L01
     K19F00V KC2019 03 27.02667516 23 06.50 +23 36 27.0          19.4 VqEF122I93
     K19F00V KC2019 03 27.03697616 23 11.16 +23 35 12.5          19.2 VqEF122I93
     K19F00V KC2019 03 27.04320216 23 13.97 +23 34 28.5          19.4 VqEF122I93
     K19F00V KC2019 03 27.34240616 25 38.57 +22 57 24.0          20.6 VuEF122H21
     K19F00V KC2019 03 27.34444916 25 39.48 +22 57 08.8          20.4 VuEF122H21
     K19F00V KC2019 03 27.34689916 25 40.56 +22 56 50.1          20.5 VuEF122H21
     K19F00V IC2019 03 27.99331016 31 10.37 +21 30 28.0          20.6 GVEF122L01
     K19F00V KC2019 03 27.99433516 31 10.87 +21 30 19.9          20.3 GVEF122L01
     K19F00V KC2019 03 27.99596 16 31 12.10 +21 30 03.3          19.7 GVEF122203
     K19F00V KC2019 03 27.99639716 31 11.88 +21 30 03.2          20.4 GVEF122L01
     K19F00V KC2019 03 28.02434 16 31 25.91 +21 26 11.7          19.6 GVEF122203
     K19F00V KC2019 03 28.06989 16 31 47.31 +21 19 48.7          19.8 GVEF122K87
     K19F00V KC2019 03 28.07523 16 31 49.88 +21 19 03.8          19.6 GVEF122K87
     K19F00V KC2019 03 28.07646 16 31 50.51 +21 18 52.8          19.4 GVEF122K87
     K19F00V KC2019 03 28.09525 16 31 59.96 +21 16 25.9          20   GVEF122204
     K19F00V KC2019 03 28.10600 16 32 05.08 +21 14 56.1                VEF122204
     K19F00V KC2019 03 28.35516 16 34 18.76 +20 39 32.8          19.7 RqEF122H36
     K19F00V KC2019 03 28.36463 16 34 23.47 +20 38 13.2          19.7 RqEF122H36
     K19F00V KC2019 03 28.37412 16 34 28.02 +20 36 51.7          19.8 RqEF122H36
     K19F00V  C2019 03 28.43784 16 35 01.17 +20 27 51.0          19.2 GVEF122I52
     K19F00V  C2019 03 28.43825 16 35 01.37 +20 27 47.5          19.1 GVEF122I52
     K19F00V  C2019 03 28.43867 16 35 01.57 +20 27 43.9          19.1 GVEF122I52
     K19F00V  C2019 03 28.43909 16 35 01.77 +20 27 40.2          19.2 GVEF122I52
 
Observer details:
203 GiaGa Observatory.  Observers S. Foglia, G. Galli.  Measurer G. Galli.
    0.36-m f/5.76 Schmidt-Cassegrain + CCD.
204 Schiaparelli Observatory.  Observer L. Buzzi.  0.84-m f/3.5 reflector +
    CCD.
703 Catalina Sky Survey.  Observer G. J. Leonard.  Measurers B. M. Africano,
    E. J. Christensen, G. A. Farneth, D. C. Fuls, A. R. Gibbs, A. D. Grauer,
    H. Groeller, R. A. Kowalski, S. M. Larson, G. J. Leonard, T. A. Pruyne,
    R. L. Seaman, F. C. Shelly.  0.68-m Schmidt + 10K CCD.
H21 Astronomical Research Observatory, Westfield.  Observer R. Holmes.
    Measurers S. Foglia, L. Buzzi, T. Linder, R. Holmes.  0.76-m f/3.0
    astrograph + CCD.
H36 Sandlot Observatory, Scranton.  Observer G. Hug.  0.56-m reflector + CCD.
I52 Steward Observatory, Mt. Lemmon Station.  Observer H. Groeller.
    Measurers B. M. Africano, E. J. Christensen, G. A. Farneth, D. C. Fuls,
    A. R. Gibbs, A. D. Grauer, H. Groeller, R. A. Kowalski, S. M. Larson,
    G. J. Leonard, T. A. Pruyne, R. L. Seaman, F. C. Shelly.  1.0-m reflector
    + CCD.
I93 St Pardon de Conques.  Observer F. Losse.  0.40-m f/3.7 reflector + CCD.
K87 Dettelbach Vineyard Observatory.  Observer B. Haeusler.  0.30-m
    Schmidt-Cassegrain + CCD.
L01 Visnjan Observatory, Tican.  Observers K. Korlevic, J. Mates,
    F. Valentine.  Measurer K. Korlevic.  1.0-m f/2.9 reflector + CCD.
 
Orbital elements:
2019 FV                                                  Earth MOID = 0.0035 AU
Epoch 2019 Apr. 27.0 TT = JDT 2458600.5                 MPC
M 353.18678              (2000.0)            P               Q
n   0.75269770     Peri.  210.59244     -0.64449659     +0.76178693
a   1.1968939      Node    19.52716     -0.65576292     -0.50658464
e   0.1776246      Incl.   11.32017     -0.39319097     -0.40379782
P   1.31           H   24.0           G   0.15           U   8
Residuals in seconds of arc
190326 703  0.4-  0.0     190327 H21  0.2+  0.2-    190328 K87  0.5-  0.7-
190326 703  0.3+  0.7-    190327 H21  0.1+  0.0     190328 204  0.4+  0.2-
190326 703  0.3-  0.6+    190327 H21  0.1-  0.3-    190328 204  0.5+  0.2-
190326 703  0.5+  0.1+    190327 L01  0.0   0.1+    190328 H36  1.1-  1.0-
190326 L01  0.3-  0.6+    190327 L01  0.0   0.3+    190328 H36  0.5+  0.7+
190326 L01  0.3-  0.2+    190327 203  1.0+  0.1+    190328 H36  0.0   0.8+
190326 L01  0.5+  0.9-    190327 L01  0.0   0.4+    190328 I52  0.2+  0.2-
190327 I93  0.1+  0.5+    190328 203  0.5+  0.5-    190328 I52  0.2+  0.1-
190327 I93  0.1-  0.4-    190328 K87  1.1-  0.7+    190328 I52  0.2+  0.0
190327 I93  0.1-  0.2+    190328 K87  1.1-  0.1+    190328 I52  0.2+  0.1-

Ephemeris:
2019 FV                  a,e,i = 1.20, 0.18, 11                  q = 0.9843
Date    TT    R. A. (2000) Decl.     Delta      r     Elong.  Phase     V
2019 02 26    14 19 55.3 +40 01 40   0.1790  1.0936   121.3    50.7    22.3
...
2019 03 13    15 07 06.1 +37 21 29   0.1147  1.0555   119.9    54.7    21.4
...
2019 03 21    15 43 04.5 +32 15 19   0.08227 1.0375   118.3    57.7    20.7
...
2019 03 27    16 22 47.2 +23 40 56   0.06014 1.0253   115.8    61.1    20.1
2019 03 28    16 31 07.3 +21 30 56   0.05680 1.0234   115.2    62.0    20.0
2019 03 29    16 40 05.4 +19 03 08   0.05362 1.0215   114.4    62.9    19.9
...
2019 04 04    17 50 42.4 -03 40 22   0.03980 1.0111   105.2    72.7    19.6
...
2019 04 12    20 13 22.9 -40 33 35   0.04497 0.9996    85.4    92.0    20.5
...
2019 04 27    23 35 35.5 -53 38 07   0.09591 0.9865    75.4    99.2    22.5

A. U. Tomatic                (C) Copyright 2019 MPC           M.P.E.C. 2019-F122



More information about the Iaude mailing list